Terminal Aerodrome Forecast
Issued by NWS Cleveland, OH

Home | Current Version | Previous Version | Graphics & Text | Print | Product List | Glossary On
Versions: 1 2 3 4 5 6 7 8 9 10 11 12 13 14 15 16 17 18 19 20 21 22 23 24 25 26 27
107
FTUS41 KCLE 251808 AAA
TAFERI
TAF AMD
KERI 251808Z 2518/2618 05014KT 6SM BR VCSH BKN007 OVC060
      TEMPO 2519/2523 5SM BR SCT007 BKN060
     FM261000 10014KT 6SM BR BKN008 OVC015
     FM261700 15015KT P6SM VCSH SCT008 OVC020=

USA.gov is the U.S. government's official web portal to all federal, state and local government web resources and services.